STARLINK-32473, 62049

Orbit data source: Space-Track

STARLINK-32473, 62049 is a payload satellite owned by SpaceX/Seattle (US) in LEO that was launched on Thu, 21 Nov 2024 UTC via an FALCON 9 launch vehicle from the Air Force Eastern Test Range (AFETR). Payload-class satellites include a variety of spacecraft equipped with specific instruments for various scientific and technological missions. These include communications satellites like Starlink; space stations such as the ISS; scientific satellites like the Hubble; Earth observation satellites from companies like Planet Labs, Umbra, and HawkEye 360; GPS; miniature CubeSats for education and research; and military/defense satellites.

Loading next visibility...
Identifier
62049, 2024-216T
Orbit
LEO
Country
Flag of USUS
Related business
Manufacturer
SpaceX/Seattle
Mission
Operational Commercial Communications
Bus & Motor
STARLINK V2M, Unknown motor
Mass
730 kg wet, ~700 kg dry
Launch date (UTC)
2024-11-21 (1 year ago)
Launch vehicle
FALCON 9
Launch site
Air Force Eastern Test Range (AFETR)
Object type
Payload
Rocket body
Debris
Shape & HBR
Box + 2 Pan, 17.7 m
Radar Cross Section
33.884 m², Large (>1 m²)

Expand to show TLE details & history
Last TLE update: 21 hours ago

TLE from 21 hours ago
0 STARLINK-32473
1 62049U 24216T   26134.59107648  .00013638  00000-0  50395-3 0  9998
2 62049  43.0027 244.2108 0001222 269.3858  90.6854 15.27596491 82795
Epoch: 2026-05-14T14:11Z
TLE epoch observation values (Epoch: 2026-05-14T14:11:09.007Z)
Latitude
-0.00001°
Longitude
159.08871°
Altitude
482.786 km
Speed
7.626 km/s
True Right ascension
16h 16m 50s
True Declination
0° 00' 00"
Sunlit
Object was in full shadow at epoch
Visualization orbit readout
Latitude
Unknown
Longitude
Unknown
Altitude
Unknown
Speed
Unknown
Apparent Right ascension
Unknown
Apparent Declination
Unknown
Sunlit
N/A
Visualization observer readout
Local Sidereal Time
19:58:01
Azimuth
Unknown
Elevation
Unknown
Doppler factor
Unknown
Orbital elements
Apogee altitude
485.783 km
Perigee altitude
484.106 km
Semi-major axis
6,863.081 km
Eccentricity
0.00012
Inclination
43.0027°
RAAN
244.2108°
Arg. of periapsis
269.3858°
True anomaly
90.6994°
Mean anomaly
90.6854°
Eccentric anomaly
90.6924°
Mean motion
3.81737 °/min
Orbital period
94.31 mins
BSTAR
0.00050395
Loading maneuver chart data...
Computing Atmospheric mass density...
Loading historical data...
Loading historical data...
Loading historical data...
Loading historical data...
Loading historical data...
Loading historical data...
Loading historical data...

Documentation

Showing up to 5 results
|